User: anonymous   Login
Location: Deer Path Park
(40.5570°N, 74.8450°W)
Time: 04:22:01
(UTC-04:00)
Language:

Iridium 49 - Orbit

View from above orbital plane
View from above orbital plane
View from above satellite
View from above satellite

Ground track
Ground track

The orbit data is extracted from the following two-line orbital elements,

1 25108U 97082E   14304.45828404  .00000284  00000-0  94310-4 0  9747
2 25108 086.3925 296.5833 0002140 106.0045 004.0549 14.34225595882819
Epoch (UTC): 31 October 2014 10:59:55
Eccentricity: 0.0002140
inclination: 86.3925°
perigee height: 776 km
apogee height: 779 km
right ascension of ascending node: 296.5833°
argument of perigee: 106.0045°
revolutions per day: 14.34225595
mean anomaly at epoch: 4.0549°
orbit number at epoch: 88281

The dashed part of the orbit path shows where the satellite is in the earth's shadow,  

DLR